Regional Weather Roundup
Issued by NWS

Home | Current Version | Previous Version | Graphics & Text | Print | Product List | Glossary On
Versions: 1 2 3 4 5 6 7 8 9 10 11 12 13 14 15 16 17 18 19 20 21 22 23 24 25 26 27 28 29 30 31 32 33 34 35 36 37 38 39 40 41 42 43 44 45 46 47 48 49 50
000
ASUS45 KTFX 211019
RWRMT
MONTANA HOURLY WEATHER ROUNDUP
NATIONAL WEATHER SERVICE GREAT FALLS MT
419 AM MDT THU AUG 21 2014

NOTE: "FAIR" INDICATES FEW OR NO CLOUDS BELOW 12000 FEET WITH NO
SIGNIFICANT WEATHER AND/OR OBSTRUCTIONS TO VISIBILITY.

* THESE STATIONS ARE NOT UNDER NWS QUALITY CONTROL. THEY DO NOT
   REPORT WEATHER SUCH AS PRECIPITATION OR FOG.

MTZ001>007-043-211100-
WEST OF THE DIVIDE
CITY           SKY/WX    TMP DP  RH WIND       PRES   REMARKS
KALISPELL      CLOUDY    55  52  90 NE12      29.99R
MISSOULA       CLOUDY    57  52  83 CALM      29.99R
BUTTE          CLOUDY    52  45  77 NE3       30.08R
MULLAN PASS    CLOUDY    52  43  72 CALM      30.06R
* ESSEX        N/A       51  50  96 SE1        N/A
* LINCOLN      N/A       51  48  90 E3G12      N/A
* LOOKOUT PASS N/A       52  47  83 N/A        N/A
* POLSON       N/A       54  54 100 NW2        N/A
* RONAN APT    CLOUDY    57  54  90 N6         N/A
* SEELEY LAKE  N/A       47  46  96 NW2        N/A
* THOMP F APT  PTCLDY    48  47  96 N3         N/A
* YAAK HILL    N/A       54  52  93 N/A        N/A
$$

MTZ008-052>055-211100-
SOUTHWEST MONTANA
CITY           SKY/WX    TMP DP  RH WIND       PRES   REMARKS
BOZEMAN        CLOUDY    55  54  96 SE3       30.03R
DILLON         CLOUDY    54  46  74 S5        30.04R
W YELLOWSTONE  CLOUDY    46  46 100 S3        30.14R
* THREE FORKS  MOCLDY    57  57 100 N5         N/A
* BOULDER HILL N/A       49  45  86 N6         N/A
* MONIDA PASS  N/A       47  47 100 SE6        N/A
* RAYNOLDS PAS N/A       47  26  44 SE4        N/A
* WHITEHALL    N/A       54  47  77 W2         N/A
* WISE RIVER   N/A       49  47  93 W4         N/A
$$

MTZ009>010-012-014-046-048-049-054-211100-
EAST SLOPES AND CENTRAL MONTANA
CITY           SKY/WX    TMP DP  RH WIND       PRES   REMARKS
CUT BANK       CLOUDY    54  50  86 N14       30.05R
GREAT FALLS    CLOUDY    54  52  93 NW3       30.02R
HELENA         CLOUDY    55  52  90 SW5       30.02R
MALMSTROM AFB  CLOUDY    54  52  93 SW5       30.03S
* CONRAD       MOCLDY    55  55 100 NW8        N/A
* DEARBORN     N/A       56  52  87 S9G14      N/A
* EAST GLACIER N/A       47  45  93 NE8        N/A
* MONARCH      N/A       49  46  89 NW11G16    N/A
* PENDROY      N/A       53  52  96 N9G14      N/A
* ROGERS PASS  N/A       47  46  96 NW2        N/A
* SAINT MARY   N/A       47  45  93 N4G11      N/A
* SWEET GRASS  N/A       51  51 100 N15G20     N/A
* WHITE SULPH  N/A       54  49  83 NW8G14     N/A
$$

MTZ011-013-016-021-035-040-045-047-050-051-211100-
NORTH CENTRAL MONTANA
CITY           SKY/WX    TMP DP  RH WIND       PRES   REMARKS
HAVRE          CLOUDY    57  55  93 W6        29.97R
LEWISTOWN      CLOUDY    55  52  90 SW6       30.01R
* FORT BENTON  MOCLDY    57  54  90 SW3       30.01R
* CHESTER      N/A       54  52  93 NW2        N/A
* DENTON       N/A       54  52  93 N2         N/A
* GEYSER       N/A       53  52  96 W19G24     N/A
* JUDITH GAP   N/A       54  51  90 NW11       N/A
* LOMA         N/A       56  55  96 SW2        N/A
$$

MTZ017>020-022>027-061-062-211100-
NORTHEAST MONTANA
CITY           SKY/WX    TMP DP  RH WIND       PRES   REMARKS
GLASGOW        CLOUDY    63  57  81 N16       29.88R
GLENDIVE       CLEAR     61  55  81 NW7       29.88R
JORDAN         CLOUDY    63  55  75 NW9       29.90R
SIDNEY         CLEAR     61  61 100 NW6       29.85R
WOLF POINT     PTCLDY    55  54  96 SW3       29.87R
* BEAVER HILL  N/A       59  57  93 N/A        N/A
* CIRCLE       N/A       59  56  90 N/A        N/A
* LINDSAY DVD  N/A       56  53  90 NW6        N/A
* SACO         N/A       61  59  93 NW6        N/A
$$

MTZ028>042-056>058-211100-
SOUTHCENTRAL AND SOUTHEAST MONTANA
CITY           SKY/WX    TMP DP  RH WIND       PRES   REMARKS
BAKER          CLEAR     55  54  96 NW3       29.89R
BILLINGS       LGT RAIN  61  54  78 N3        29.97R
LIVINGSTON     CLOUDY    59  48  67 NW12      30.01R
MILES CITY     PTCLDY    57  52  83 S6        29.88R
* LAUREL APT   CLOUDY    59  55  87 N/A        N/A
* ROUNDUP APT  CLOUDY    59  54  84 N/A        N/A
* ALZADA       N/A       58  50  75 W3         N/A
* HYSHAM       N/A       60  54  81 NW4G9      N/A
* LAME DEER    N/A       59  50  72 NW3        N/A
* REED POINT   N/A       59  54  84 S3G9       N/A
* ROSCOE HILL  N/A       58  44  60 SE1G6      N/A
$$

REGIONAL REPORTS...DAKOTAS
CITY           SKY/WX    TMP DP  RH WIND       PRES   REMARKS
WILLISTON      FOG       57  55  93 CALM      29.83R VSB M1/4
DICKINSON      CLEAR     55  54  96 W7        29.82R
BEACH          N/A       57  57 100 W5        29.87R
CROSBY         FOG       57  57 100 NW7       29.82R
TIOGA          FOG       63  63 100 NW7       29.85R VSB 1 1/4
WATFORD CITY   MOCLDY    55  55 100 SW3       29.81R
BISMARCK       CLEAR     66  64  93 NW6       29.75R
GRAND FORKS    CLOUDY    70  64  81 SE9       29.72F
FARGO          CLOUDY    70  68  93 S8G17     29.69R
BUFFALO SD     PTCLDY    59  55  87 NW7       29.80S
RAPID CITY     LGT RAIN  64  61  90 SW7       29.90R
$$

REGIONAL REPORTS...WYOMING/IDAHO/WASHINGTON
CITY           SKY/WX    TMP DP  RH WIND       PRES   REMARKS
GILLETTE       MOCLDY    57  55  93 W6        29.96R
SHERIDAN       PTCLDY    57  48  72 CALM      29.96R
CODY           CLOUDY    59  46  62 CALM      30.02R
YELLOWSTONE LA CLOUDY    43  43 100 CALM      30.21R
SALMON         CLOUDY    54  54 100 SW3       30.04R
MULLAN PASS    CLOUDY    52  43  72 CALM      30.06S
SAND POINT     PTCLDY    54  54 100 CALM      29.97R
SPOKANE        MOCLDY    59  55  87 NE6       29.93R
$$

REGIONAL REPORTS...ALBERTA
CITY           SKY/WX    TMP DP  RH WIND       PRES   REMARKS
CALGARY        MOCLDY    50  46  86 N9        30.11R
LETHBRIDGE     CLOUDY    54  52  93 NW7       30.06S
MEDICINE HAT   LGT RAIN  55  54  96 NW12      30.00R
EDMONTON       CLOUDY    48  46  93 NW5       30.12R
WATERTON GATE  N/A       48  46  93 CALM       N/A
CARDSTON       N/A       50  50 100 NW3        N/A
MILK RIVER     N/A       52  48  86 N12        N/A
$$

REGIONAL REPORTS...SASKATCHEWAN
CITY           SKY/WX    TMP DP  RH WIND       PRES   REMARKS
SWIFT CURRENT  CLOUDY    57  57 100 NW3       29.93R
MOOSE JAW      CLOUDY    59  57  93 NW7       29.89R
REGINA         FOG       61  61 100 N13G18    29.86R
VAL MARIE      N/A       59  57  93 NW3        N/A
ASSINIBOIA     N/A       59  57  93 N6         N/A
CORONACH       N/A       55  54  96 W5         N/A

$$



USA.gov is the U.S. government's official web portal to all federal, state and local government web resources and services.